RH
15 15 15 14 13 13 14 15 15 15 13 13 14 16 17 19 22 24 23 21 17 13 13 14 14 13 14 14 15 16 18 18 18 16 16 16 17 18 20 22 22 23 21 21 21 21 22
14 15 15 15 14 14 13 13 14 13 14 16 17 18 19 20 21 21 20 19 14 12 10 10 12 14 13 13 15 15 16 18 18 17 16 17 18 18 20 22 22 24 24 23 22 21 21
14 13 13 13 13 13 12 12 13 14 16 18 19 21 23 25 23 20 18 17 13 11 11 10 12 14 16 15 15 16 17 17 17 16 17 18 19 20 22 25 26 26 25 22 22 22 22
14 13 12 11 11 12 12 12 14 15 16 19 24 27 25 19 15 14 14 13 13 13 12 12 12 14 14 16 17 17 18 18 17 17 18 19 21 22 23 25 25 27 26 24 20 24 23
14 14 14 13 12 13 13 13 15 19 23 26 25 23 17 14 13 12 13 13 12 12 10 12 13 14 15 17 18 18 19 18 18 18 18 20 22 25 27 25 23 25 22 25 22 23 24
15 15 15 14 13 14 14 17 22 25 26 23 18 13 12 12 12 10 10 10 10 9 10 11 12 12 14 17 17 17 16 17 19 20 20 22 25 27 30 25 23 21 25 28 27 21 24
16 16 15 15 14 15 19 24 26 25 20 15 13 13 12 9 7 7 7 8 9 11 13 14 16 16 16 18 18 18 19 19 21 22 22 26 25 23 23 25 23 23 24 25 23 21 22
17 17 16 16 18 22 24 25 23 20 16 14 14 10 8 8 8 10 11 12 15 17 19 20 24 25 25 26 25 24 24 24 25 24 27 25 26 22 23 24 26 29 30 29 25 23 23
18 17 17 21 25 27 25 22 20 16 16 16 11 9 9 10 12 13 15 17 18 19 21 21 27 25 25 24 26 26 27 27 27 27 26 23 19 22 22 23 25 28 28 26 24 22 22
18 18 22 27 29 26 23 20 17 17 18 14 9 10 12 14 15 16 17 17 17 20 22 24 27 27 26 24 25 25 24 24 23 24 24 25 22 22 23 23 23 25 21 23 24 26 29
21 23 26 30 30 24 21 19 19 19 16 11 10 12 17 17 17 18 17 16 17 18 26 20 26 26 23 22 22 23 22 22 21 21 22 18 18 19 23 20 22 22 22 25 26 29 32
25 30 31 31 27 23 20 20 19 16 13 10 13 20 21 20 18 16 15 16 18 24 22 22 26 24 20 19 20 20 21 21 22 25 24 23 22 20 18 17 19 21 25 30 36 38 46
28 30 29 28 22 20 20 20 16 12 11 17 22 21 20 19 18 15 15 17 20 27 19 24 24 22 20 17 19 23 23 23 24 26 22 22 20 19 21 23 25 28 34 45 45 53 44
30 30 30 25 20 22 22 19 13 14 19 22 23 22 20 19 17 15 16 15 17 18 24 25 24 21 18 21 21 20 27 30 30 31 34 39 32 23 26 26 27 32 32 42 52 49 37
30 28 26 24 25 21 17 13 14 21 24 24 23 22 21 19 16 15 15 23 23 27 30 30 23 20 20 24 23 20 28 37 40 40 43 45 38 29 29 30 32 33 38 34 48 51 64
29 26 24 26 19 12 11 13 22 26 26 25 23 23 22 18 16 17 18 24 31 32 31 29 27 28 28 32 26 27 24 35 38 40 44 49 51 33 31 29 30 35 38 48 56 70 59
28 25 27 24 15 12 15 23 27 27 26 26 24 23 22 19 19 17 23 31 33 32 31 30 32 33 38 41 42 40 38 41 40 42 46 52 58 38 36 33 37 41 43 50 57 61 66
29 27 28 26 17 19 20 23 28 29 28 26 25 24 23 21 22 29 32 31 30 32 31 33 38 40 44 45 45 46 51 48 46 48 49 51 59 58 39 35 41 45 52 59 70 66 65
31 29 28 26 20 18 22 25 29 29 26 26 25 25 22 20 23 28 28 31 30 30 30 34 38 39 39 46 41 47 51 49 49 47 44 45 55 56 32 26 44 59 57 57 67 80 83
33 30 29 27 22 20 20 25 28 28 26 27 27 27 22 21 24 24 26 30 31 30 30 31 32 34 36 38 40 43 37 36 32 25 31 31 49 55 62 55 49 42 33 31 70 95 91
34 30 30 28 24 24 28 30 30 29 27 27 26 30 26 26 28 28 28 29 31 30 29 30 34 32 31 33 31 34 29 27 24 27 33 40 47 45 45 44 43 52 49 50 47 44 74
35 34 34 33 30 28 33 36 33 31 30 27 25 26 27 31 30 28 29 33 31 29 26 31 28 26 24 28 27 29 32 35 33 32 43 54 60 57 51 45 53 56 64 75 75 70 58
37 36 42 37 35 35 36 38 35 32 30 26 25 26 24 32 29 27 30 31 29 26 27 29 25 25 25 27 26 24 28 33 37 44 53 64 68 68 64 65 62 76 91 93 93 94 93
36 41 46 45 42 39 39 39 35 33 29 26 26 26 22 31 28 29 28 27 28 27 26 27 27 28 29 28 25 23 28 37 44 57 64 71 78 74 71 64 80 96 90 96 97 98 97
60 55 56 50 44 40 40 39 36 33 31 28 25 22 21 30 27 29 28 28 28 27 27 27 29 31 30 30 33 35 39 41 48 57 66 77 84 84 87 78 65 90 91 94 96 96 98
59 55 48 46 44 43 42 38 35 34 32 27 22 21 20 23 29 25 27 28 28 29 28 29 32 31 33 36 44 54 57 53 62 57 63 78 84 90 87 88 72 68 72 83 90 96 94
54 52 54 57 55 47 42 39 35 33 30 25 22 17 17 21 26 25 25 24 28 30 32 32 31 32 41 47 52 61 61 65 76 74 75 73 81 87 88 91 74 77 72 67 87 90 84
54 56 56 57 53 44 37 35 34 32 28 23 20 17 14 19 27 26 26 27 34 34 36 33 34 45 49 56 61 70 75 75 74 78 84 83 92 96 91 90 86 83 74 82 85 87 82
71 61 48 43 41 38 37 34 31 27 24 21 18 17 17 18 24 25 29 33 38 40 38 39 43 51 56 63 70 74 76 73 81 89 87 93 94 91 94 93 96 91 94 93 92 86 81